Location: Bucharest
(44.4268°N, 26.1025°E)
Time: 00:22:37
(UTC+03:00)

O/OREOS (USA 219) - Pass Details

Date: 09 July 2022
Orbit: 621 x 646 km, 72.0° (Epoch: 22 May)

Event Time Altitude Azimuth Distance (km) Brightness Sun altitude
Rises 00:05:34 0° 336° (NNW) 2,967 ? -21.0°
Reaches altitude 10° 00:07:51 10° 336° (NNW) 2,054 ? -21.1°
Maximum altitude 00:12:29 90° 35° (NE) 652 ? -21.4°
Enters shadow 00:13:21 59° 156° (SSE) 747 ? -21.4°
